EDT,Max TemperatureF,Mean TemperatureF,Min TemperatureF,Max Dew PointF,MeanDew PointF,Min DewpointF,Max Humidity, Mean Humidity, Min Humidity, Max Sea Level PressureIn, Mean Sea Level PressureIn, Min Sea Level PressureIn, Max VisibilityMiles, Mean VisibilityMiles, Min VisibilityMiles, Max Wind SpeedMPH, Mean Wind SpeedMPH, Max Gust SpeedMPH,PrecipitationIn, CloudCover, Events, WindDirDegrees
2013-9-1,90,80,71,74,72,68,100,83,57,29.86,29.82,29.77,10,10,10,13,6,24,0.00,4,Rain,198
2013-9-2,79,74,69,76,73,70,100,98,80,29.80,29.76,29.73,10,6,1,9,3,,0.19,6,Rain-Thunderstorm,180
2013-9-3,82,74,66,72,69,56,100,92,47,29.90,29.75,29.71,10,6,0,13,2,,0.00,2,Fog-Rain,284
2013-9-4,81,70,61,60,57,54,86,62,41,30.02,29.98,29.91,10,10,10,12,7,,0.00,0,Rain,288
2013-9-5,80,69,58,61,56,46,91,66,47,30.12,30.01,29.97,10,10,10,13,6,,0.00,3,Rain,316
2013-9-6,72,60,49,49,45,37,86,60,29,30.25,30.19,30.14,10,10,10,9,6,,0.00,0,,336
2013-9-7,78,62,45,58,49,44,93,61,32,30.14,30.04,29.93,10,10,10,12,3,,0.00,1,Rain,254
2013-9-8,82,71,56,65,59,46,92,67,50,30.07,29.90,29.83,10,10,10,17,7,22,0.00,3,Rain,299
2013-9-9,75,62,50,60,53,45,89,70,49,30.22,30.17,30.09,10,10,10,12,6,,0.00,2,,121
2013-9-10,88,75,63,73,68,61,94,81,60,30.19,30.14,30.07,10,10,10,14,7,,0.00,5,,221
2013-9-11,94,82,70,75,73,70,100,77,50,30.13,30.08,30.00,10,10,4,15,6,20,0.00,0,Rain,227
2013-9-12,89,79,69,74,70,66,100,83,58,29.99,29.85,29.71,10,9,5,24,7,32,0.01,3,Rain-Thunderstorm,231
2013-9-13,77,67,57,70,63,50,100,87,48,29.87,29.69,29.65,10,9,2,17,8,23,0.15,6,Rain,302
2013-9-14,68,58,50,50,47,44,85,67,48,30.14,30.01,29.88,10,10,10,14,9,21,0.00,2,,312
2013-9-15,73,59,46,54,47,43,88,67,40,30.23,30.16,30.10,10,10,10,13,5,18,0.00,0,,257
2013-9-16,70,63,56,59,56,49,94,82,56,30.22,30.09,30.04,10,9,3,13,6,,0.04,5,Rain,331
2013-9-17,64,54,43,49,42,37,88,65,38,30.41,30.34,30.24,10,10,10,14,9,21,0.00,1,,17
2013-9-18,72,56,41,51,45,40,94,63,40,30.35,30.28,30.20,10,10,10,7,3,,0.00,0,Rain,225
2013-9-19,75,58,43,54,50,42,94,72,41,30.20,30.14,30.08,10,10,9,12,2,,0.00,0,Rain,251
2013-9-20,80,62,46,59,54,45,96,76,44,30.10,30.05,29.99,10,10,9,9,2,,0.00,0,Rain,195
2013-9-21,81,64,48,68,55,46,100,92,45,30.01,29.90,29.68,10,6,0,17,3,26,0.34,3,Fog-Rain,167
2013-9-22,71,60,50,68,60,44,100,90,41,29.93,29.71,29.66,10,7,2,22,7,30,0.65,6,Rain,299
2013-9-23,67,57,46,45,42,40,80,61,42,30.05,30.00,29.93,10,10,10,17,9,21,0.00,0,,319
2013-9-24,71,56,42,52,46,40,88,65,41,30.07,29.96,29.90,10,9,4,12,6,,0.00,0,Rain,308
2013-9-25,73,58,45,52,47,42,92,64,38,29.96,29.92,29.87,10,10,10,8,4,,0.00,0,Rain,336
2013-9-26,72,60,47,57,53,47,100,83,52,30.09,30.01,29.93,10,9,5,7,2,,0.00,3,Rain,74
2013-9-27,69,60,53,56,54,50,100,82,55,30.26,30.17,30.09,10,10,8,10,3,,0.00,7,,43
2013-9-28,72,62,52,54,51,49,95,75,44,30.31,30.26,30.22,10,10,10,14,5,17,0.00,2,Rain,28
2013-9-29,72,60,50,58,52,49,99,77,48,30.22,30.15,30.08,10,10,10,12,5,,0.00,1,Rain,34
2013-9-30,73,59,47,55,51,46,100,81,48,30.08,30.04,29.98,10,10,9,8,4,,0.00,1,,332